Regional Weather Roundup
Issued by NWS

Home | Current Version | Previous Version | Graphics & Text | Print | Product List | Glossary Off
Versions: 1 2 3 4 5 6 7 8 9 10 11 12 13 14 15 16 17 18 19 20 21 22 23 24 25 26 27 28 29 30 31 32 33 34 35 36 37 38 39 40 41 42 43 44 45 46 47 48 49 50

000
ASUS45 KABQ 240901
RWRNM
NEW MEXICO REGIONAL WEATHER ROUNDUP
NATIONAL WEATHER SERVICE ALBUQUERQUE NM
200 AM MST TUE JAN 24 2017

NOTE: "FAIR" MEANS FEW OR NO CLOUDS BELOW 12,000 FEET AGL WITH NO
       SIGNIFICANT WEATHER OR OBSTRUCTIONS TO VISION.

      THIS PRODUCT IS RELEASED AS TWO VERSIONS.  ONE VERSION NEAR
      THE TOP OF THE HOUR CONTAINING PRELIMINARY DATA FROM ALBUQUERQUE
      AND OTHER STATIONS.  A FINAL VERSION WITH ADDITIONAL DATA IS
      ISSUED ABOUT 10 MINUTES AFTER THE HOUR.

NMZ501-503-504-510>518-241000-
NORTHWEST PLATEAU/NORTHCENTRAL MOUNTAINS

CITY           SKY/WX    TMP DP  RH WIND       PRES   REMARKS
FARMINGTON     LGT SNOW  30  29  96 SE6       29.61S FOG     WCI  24
LOS ALAMOS     CLOUDY    31  24  76 CALM      29.62R
SANTA FE       CLOUDY    32  30  92 S5        29.63S WCI  27
TAOS           CLOUDY    28  19  69 SW13      29.61F WCI  18
ANGEL FIRE     LGT SNOW  25  23  91 S10G18    29.59F VSB 3/4 WCI  15

$$
NMZ402-403-502-505>509-241000-
WESTCENTRAL MOUNTAINS/SOUTHWEST MOUNTAINS

CITY           SKY/WX    TMP DP  RH WIND       PRES   REMARKS
GALLUP         LGT SNOW  29  27  92 SW10      29.63F FOG     WCI  20
GRANTS         LGT SNOW  30  29  98 NW15      29.65F WCI  19
SILVER CITY    MOCLDY    40  32  74 W18G31    29.75R WCI  30

$$
NMZ407-409-411-412-241000-
SOUTHERN DESERTS

CITY           SKY/WX    TMP DP  RH WIND       PRES   REMARKS
DEMING         MOCLDY    49  34  56 W21G28    29.72R
LAS CRUCES     FAIR      45  31  58 SW5       29.71F
ALAMOGORDO     FAIR      48  32  53 S12       29.71R
T OR C         FAIR      48  28  46 W15       29.64R

$$
NMZ519>523-241000-
CENTRAL VALLEYS/CENTRAL HIGHLANDS

CITY           SKY/WX    TMP DP  RH WIND       PRES   REMARKS
ALBUQUERQUE    MOCLDY    38  32  79 NW7       29.64F WCI  33
DOUBLE EAGLE   MOCLDY    33  31  92 W12       29.65S WCI  25
MORIARTY ARPT  LGT SNOW  33  30  89 NW8       29.63S WCI  26
CLINES CORNERS LGT SNOW  29  28  96 NW14      29.61F FOG     WCI  18
BELEN          MOCLDY    37  30  74 NW15      29.65F WCI  28
SOCORRO        FAIR      48  29  48 SW26G36   29.62S

$$
NMZ524>526-539-540-241000-
SOUTHCENTRAL MOUNTAINS

CITY           SKY/WX    TMP DP  RH WIND       PRES   REMARKS
RUIDOSO        NOT AVBL

$$
NMZ527>531-241000-
NORTHEAST HIGHLANDS/NORTHEAST PLAINS

CITY           SKY/WX    TMP DP  RH WIND       PRES   REMARKS
LAS VEGAS      CLOUDY    34  26  72 W9        29.57R WCI  27
RATON          MOCLDY    36  26  67 SW10G23   29.53R WCI  28
CLAYTON        FAIR      39  33  79 SW12      29.49S WCI  32

$$
NMZ532>537-241000-
EASTCENTRAL PLAINS

CITY           SKY/WX    TMP DP  RH WIND       PRES   REMARKS
TUCUMCARI      FAIR      47  29  49 SW17      29.51F
CANNON AFB     FAIR      44  28  52 SW15      29.59F
CLOVIS AIRPORT FAIR      41  25  52 S13       29.60S

$$
NMZ028-029-538-241000-
SOUTHEAST PLAINS

CITY           SKY/WX    TMP DP  RH WIND       PRES   REMARKS
ROSWELL        FAIR      47  26  44 SW12      29.60S
ARTESIA        FAIR      50  28  43 SW13      29.63R
CARLSBAD       FAIR      54  28  36 SW14      29.62F


$$



USA.gov is the U.S. government's official web portal to all federal, state and local government web resources and services.